Precipitable_Water
0.72 0.72 0.70 0.69 0.67 0.64 0.60 0.57 0.54 0.52 0.49 0.48 0.48 0.47 0.45 0.43 0.41 0.41 0.41 0.42 0.41 0.41 0.40 0.37 0.33 0.31 0.31 0.30 0.29 0.28 0.26 0.23 0.23 0.19 0.17 0.19 0.19 0.22 0.23 0.25 0.25 0.27 0.26 0.24 0.24 0.23 0.20 0.20 0.19 0.21 0.23 0.24 0.27 0.23 0.26 0.27 0.29 0.28 0.20 0.16 0.15 0.19 0.20 0.21 0.18 0.16 0.18 0.16 0.18 0.18 0.16 0.14 0.13 0.18 0.19 0.20 0.18 0.18 0.19 0.18 0.20 0.25 0.24 0.23 0.23 0.27 0.28 0.29
0.69 0.68 0.67 0.66 0.64 0.62 0.59 0.56 0.53 0.51 0.48 0.47 0.47 0.46 0.45 0.42 0.41 0.41 0.40 0.41 0.43 0.42 0.39 0.38 0.34 0.32 0.32 0.30 0.27 0.28 0.24 0.22 0.23 0.19 0.17 0.20 0.22 0.23 0.23 0.23 0.24 0.25 0.23 0.20 0.22 0.21 0.18 0.17 0.17 0.17 0.19 0.19 0.25 0.21 0.25 0.22 0.25 0.20 0.19 0.19 0.16 0.23 0.22 0.23 0.20 0.19 0.15 0.13 0.16 0.17 0.17 0.15 0.13 0.17 0.19 0.15 0.14 0.15 0.14 0.15 0.18 0.18 0.22 0.21 0.22 0.24 0.24 0.25
0.63 0.65 0.63 0.62 0.61 0.59 0.57 0.55 0.53 0.51 0.49 0.47 0.46 0.45 0.43 0.41 0.40 0.40 0.41 0.40 0.42 0.40 0.39 0.36 0.35 0.32 0.31 0.30 0.29 0.26 0.24 0.23 0.19 0.16 0.23 0.23 0.23 0.21 0.22 0.21 0.22 0.24 0.21 0.18 0.19 0.20 0.19 0.18 0.18 0.16 0.16 0.17 0.21 0.20 0.21 0.20 0.21 0.20 0.17 0.16 0.20 0.22 0.20 0.21 0.21 0.18 0.16 0.14 0.13 0.14 0.15 0.15 0.15 0.18 0.19 0.14 0.13 0.14 0.13 0.12 0.15 0.16 0.17 0.19 0.20 0.21 0.22 0.23
0.60 0.62 0.64 0.60 0.58 0.57 0.55 0.55 0.53 0.52 0.50 0.46 0.44 0.42 0.39 0.37 0.37 0.39 0.39 0.40 0.40 0.39 0.38 0.36 0.33 0.33 0.32 0.30 0.30 0.28 0.26 0.24 0.20 0.19 0.23 0.23 0.21 0.23 0.22 0.22 0.22 0.23 0.26 0.23 0.22 0.20 0.19 0.18 0.17 0.16 0.17 0.14 0.18 0.18 0.14 0.19 0.15 0.20 0.17 0.13 0.18 0.19 0.18 0.18 0.19 0.17 0.14 0.14 0.13 0.13 0.16 0.14 0.15 0.17 0.16 0.14 0.12 0.11 0.13 0.15 0.15 0.16 0.18 0.21 0.21 0.22 0.22 0.21
0.57 0.56 0.60 0.60 0.57 0.56 0.54 0.52 0.52 0.50 0.47 0.43 0.40 0.39 0.37 0.36 0.37 0.37 0.38 0.39 0.39 0.37 0.35 0.34 0.32 0.32 0.32 0.32 0.30 0.28 0.26 0.21 0.21 0.24 0.24 0.22 0.22 0.22 0.22 0.22 0.22 0.22 0.24 0.24 0.22 0.19 0.17 0.17 0.18 0.16 0.15 0.16 0.18 0.17 0.14 0.18 0.19 0.17 0.16 0.17 0.17 0.18 0.17 0.17 0.16 0.14 0.14 0.14 0.13 0.13 0.13 0.12 0.15 0.16 0.15 0.14 0.10 0.10 0.13 0.19 0.19 0.19 0.21 0.23 0.22 0.23 0.24 0.23
0.51 0.50 0.54 0.58 0.56 0.53 0.51 0.50 0.48 0.46 0.43 0.40 0.37 0.35 0.34 0.35 0.36 0.36 0.36 0.38 0.36 0.34 0.33 0.31 0.30 0.31 0.34 0.34 0.30 0.29 0.26 0.16 0.27 0.22 0.24 0.21 0.22 0.22 0.23 0.22 0.23 0.23 0.22 0.20 0.19 0.19 0.18 0.17 0.16 0.16 0.16 0.13 0.17 0.15 0.18 0.17 0.18 0.12 0.14 0.15 0.16 0.15 0.13 0.15 0.14 0.14 0.14 0.13 0.12 0.12 0.14 0.14 0.14 0.13 0.15 0.14 0.12 0.12 0.17 0.19 0.21 0.24 0.23 0.23 0.23 0.23 0.23 0.23
0.46 0.46 0.49 0.53 0.54 0.51 0.50 0.50 0.46 0.43 0.40 0.40 0.37 0.34 0.32 0.33 0.34 0.35 0.36 0.37 0.35 0.33 0.31 0.31 0.29 0.30 0.32 0.32 0.28 0.26 0.23 0.19 0.20 0.21 0.22 0.22 0.22 0.23 0.23 0.23 0.24 0.24 0.21 0.18 0.17 0.16 0.18 0.16 0.17 0.17 0.18 0.18 0.17 0.16 0.17 0.17 0.16 0.14 0.11 0.15 0.15 0.15 0.14 0.14 0.14 0.14 0.13 0.13 0.12 0.14 0.16 0.13 0.15 0.12 0.16 0.14 0.15 0.17 0.18 0.21 0.22 0.23 0.23 0.23 0.21 0.21 0.21 0.22
0.44 0.47 0.50 0.53 0.53 0.50 0.49 0.47 0.43 0.40 0.40 0.39 0.37 0.34 0.32 0.34 0.35 0.35 0.35 0.35 0.35 0.32 0.30 0.31 0.30 0.29 0.29 0.29 0.25 0.27 0.27 0.19 0.21 0.22 0.22 0.22 0.22 0.23 0.24 0.24 0.23 0.20 0.17 0.16 0.16 0.15 0.16 0.15 0.15 0.18 0.16 0.14 0.19 0.17 0.19 0.15 0.14 0.13 0.13 0.16 0.15 0.15 0.14 0.14 0.14 0.13 0.13 0.13 0.14 0.14 0.13 0.13 0.14 0.14 0.14 0.13 0.15 0.17 0.18 0.22 0.23 0.23 0.22 0.22 0.21 0.21 0.22 0.22
0.48 0.50 0.52 0.51 0.49 0.46 0.44 0.41 0.38 0.39 0.39 0.38 0.37 0.35 0.34 0.35 0.35 0.35 0.35 0.34 0.34 0.33 0.31 0.30 0.31 0.28 0.28 0.22 0.20 0.18 0.19 0.24 0.25 0.23 0.22 0.20 0.21 0.22 0.23 0.21 0.23 0.19 0.18 0.17 0.17 0.17 0.16 0.15 0.15 0.17 0.15 0.18 0.20 0.16 0.18 0.14 0.12 0.16 0.16 0.17 0.15 0.14 0.14 0.14 0.13 0.13 0.13 0.14 0.14 0.13 0.12 0.14 0.15 0.16 0.14 0.14 0.16 0.17 0.19 0.20 0.23 0.23 0.22 0.21 0.22 0.22 0.22 0.23
0.52 0.52 0.51 0.49 0.45 0.43 0.40 0.39 0.39 0.38 0.37 0.37 0.37 0.36 0.37 0.36 0.36 0.35 0.34 0.34 0.34 0.33 0.31 0.31 0.31 0.31 0.24 0.21 0.25 0.17 0.23 0.26 0.25 0.22 0.21 0.21 0.21 0.22 0.21 0.22 0.22 0.20 0.18 0.19 0.18 0.17 0.17 0.18 0.18 0.19 0.17 0.16 0.18 0.18 0.18 0.15 0.14 0.20 0.18 0.17 0.14 0.13 0.13 0.14 0.13 0.13 0.14 0.14 0.15 0.13 0.13 0.14 0.16 0.16 0.12 0.16 0.17 0.19 0.18 0.18 0.21 0.22 0.21 0.21 0.22 0.23 0.24 0.23
0.53 0.51 0.48 0.45 0.43 0.41 0.41 0.41 0.40 0.38 0.37 0.36 0.36 0.35 0.34 0.34 0.35 0.35 0.33 0.32 0.32 0.32 0.30 0.29 0.30 0.26 0.22 0.23 0.17 0.15 0.24 0.23 0.23 0.22 0.22 0.22 0.21 0.20 0.20 0.21 0.22 0.21 0.20 0.20 0.17 0.20 0.22 0.22 0.21 0.19 0.16 0.15 0.18 0.17 0.17 0.18 0.19 0.17 0.16 0.15 0.14 0.14 0.14 0.14 0.14 0.14 0.15 0.14 0.15 0.15 0.13 0.15 0.16 0.16 0.14 0.16 0.19 0.20 0.18 0.18 0.19 0.21 0.21 0.21 0.22 0.23 0.24 0.24
0.50 0.49 0.46 0.43 0.43 0.43 0.42 0.43 0.41 0.38 0.35 0.35 0.34 0.34 0.33 0.31 0.33 0.34 0.31 0.30 0.29 0.28 0.27 0.26 0.27 0.25 0.24 0.20 0.18 0.18 0.22 0.22 0.24 0.22 0.23 0.23 0.21 0.21 0.22 0.23 0.22 0.21 0.21 0.21 0.21 0.20 0.20 0.22 0.20 0.17 0.16 0.24 0.15 0.19 0.18 0.19 0.17 0.16 0.15 0.12 0.14 0.15 0.13 0.14 0.14 0.15 0.16 0.14 0.17 0.17 0.14 0.12 0.14 0.13 0.16 0.18 0.19 0.20 0.19 0.18 0.19 0.20 0.21 0.21 0.22 0.23 0.24 0.24
0.47 0.46 0.44 0.43 0.43 0.44 0.44 0.42 0.39 0.35 0.34 0.34 0.36 0.36 0.34 0.32 0.33 0.32 0.30 0.30 0.30 0.27 0.27 0.28 0.28 0.27 0.21 0.19 0.21 0.23 0.22 0.24 0.23 0.23 0.23 0.24 0.23 0.24 0.23 0.24 0.24 0.24 0.23 0.23 0.21 0.22 0.21 0.21 0.20 0.18 0.21 0.22 0.22 0.16 0.22 0.19 0.17 0.16 0.14 0.13 0.12 0.12 0.12 0.16 0.17 0.17 0.16 0.15 0.17 0.17 0.09 0.10 0.12 0.15 0.17 0.19 0.19 0.19 0.18 0.18 0.19 0.20 0.20 0.21 0.22 0.22 0.23 0.25
0.42 0.43 0.42 0.42 0.44 0.43 0.42 0.40 0.36 0.34 0.34 0.36 0.38 0.38 0.36 0.33 0.32 0.31 0.30 0.27 0.28 0.29 0.29 0.31 0.31 0.29 0.23 0.21 0.23 0.23 0.24 0.24 0.26 0.24 0.23 0.24 0.23 0.23 0.23 0.24 0.25 0.25 0.25 0.23 0.24 0.25 0.23 0.22 0.23 0.24 0.25 0.20 0.18 0.24 0.18 0.17 0.17 0.12 0.18 0.16 0.11 0.11 0.11 0.18 0.17 0.18 0.15 0.17 0.17 0.17 0.09 0.10 0.12 0.15 0.17 0.19 0.20 0.18 0.17 0.18 0.19 0.19 0.20 0.21 0.22 0.22 0.23 0.25
0.41 0.41 0.41 0.41 0.41 0.40 0.39 0.38 0.37 0.37 0.37 0.37 0.37 0.36 0.36 0.35 0.33 0.30 0.29 0.28 0.28 0.28 0.29 0.32 0.34 0.31 0.27 0.26 0.29 0.28 0.27 0.26 0.24 0.23 0.25 0.22 0.21 0.22 0.22 0.23 0.23 0.24 0.25 0.25 0.23 0.24 0.25 0.24 0.22 0.18 0.17 0.23 0.21 0.17 0.15 0.16 0.16 0.15 0.12 0.11 0.15 0.13 0.15 0.17 0.18 0.18 0.14 0.16 0.18 0.16 0.10 0.11 0.13 0.14 0.18 0.19 0.19 0.19 0.17 0.18 0.19 0.19 0.20 0.21 0.22 0.23 0.23 0.24
0.42 0.40 0.39 0.39 0.38 0.38 0.39 0.39 0.38 0.39 0.38 0.38 0.38 0.39 0.38 0.38 0.37 0.34 0.32 0.30 0.28 0.29 0.32 0.31 0.36 0.28 0.20 0.22 0.27 0.31 0.28 0.22 0.22 0.25 0.26 0.25 0.23 0.21 0.23 0.21 0.22 0.23 0.24 0.23 0.25 0.25 0.25 0.25 0.22 0.24 0.19 0.19 0.18 0.14 0.15 0.15 0.15 0.17 0.14 0.12 0.12 0.13 0.14 0.15 0.17 0.18 0.18 0.17 0.17 0.15 0.10 0.12 0.12 0.15 0.18 0.19 0.19 0.19 0.18 0.19 0.19 0.19 0.20 0.21 0.21 0.22 0.24 0.24
0.41 0.40 0.39 0.38 0.38 0.39 0.40 0.41 0.42 0.41 0.39 0.37 0.38 0.37 0.41 0.43 0.41 0.36 0.35 0.32 0.31 0.31 0.30 0.31 0.29 0.26 0.16 0.26 0.27 0.22 0.22 0.24 0.26 0.25 0.26 0.26 0.25 0.23 0.22 0.20 0.20 0.21 0.23 0.23 0.24 0.23 0.22 0.20 0.22 0.22 0.21 0.16 0.19 0.17 0.11 0.10 0.10 0.14 0.17 0.14 0.14 0.12 0.12 0.11 0.18 0.20 0.19 0.17 0.14 0.16 0.13 0.12 0.13 0.15 0.17 0.19 0.20 0.20 0.19 0.19 0.19 0.20 0.20 0.21 0.21 0.22 0.23 0.23
0.38 0.36 0.37 0.38 0.38 0.39 0.38 0.38 0.39 0.38 0.36 0.37 0.37 0.36 0.38 0.44 0.42 0.39 0.39 0.37 0.37 0.35 0.34 0.32 0.28 0.23 0.23 0.26 0.18 0.20 0.24 0.23 0.24 0.25 0.25 0.27 0.26 0.24 0.22 0.20 0.22 0.22 0.21 0.19 0.21 0.18 0.21 0.18 0.19 0.17 0.18 0.16 0.17 0.14 0.09 0.07 0.11 0.11 0.13 0.12 0.12 0.13 0.12 0.11 0.11 0.18 0.18 0.17 0.15 0.15 0.14 0.13 0.15 0.16 0.17 0.18 0.20 0.20 0.19 0.19 0.19 0.19 0.20 0.20 0.21 0.21 0.22 0.23
0.39 0.38 0.37 0.36 0.36 0.35 0.35 0.34 0.35 0.37 0.37 0.37 0.40 0.42 0.42 0.44 0.41 0.44 0.37 0.37 0.34 0.33 0.27 0.31 0.26 0.18 0.19 0.24 0.23 0.21 0.22 0.24 0.25 0.25 0.24 0.25 0.26 0.24 0.23 0.23 0.22 0.20 0.17 0.17 0.18 0.19 0.20 0.18 0.20 0.16 0.12 0.15 0.14 0.14 0.11 0.12 0.13 0.12 0.12 0.11 0.11 0.09 0.10 0.10 0.16 0.18 0.18 0.17 0.15 0.15 0.13 0.13 0.14 0.15 0.16 0.17 0.19 0.19 0.19 0.20 0.19 0.20 0.20 0.20 0.20 0.21 0.22 0.23
0.42 0.40 0.37 0.34 0.33 0.33 0.33 0.32 0.32 0.34 0.36 0.32 0.42 0.46 0.46 0.36 0.28 0.35 0.40 0.31 0.23 0.23 0.22 0.26 0.28 0.25 0.23 0.20 0.20 0.23 0.25 0.24 0.19 0.24 0.25 0.27 0.24 0.22 0.20 0.20 0.19 0.20 0.17 0.15 0.20 0.19 0.22 0.14 0.12 0.13 0.15 0.17 0.17 0.17 0.16 0.16 0.14 0.13 0.11 0.11 0.10 0.11 0.12 0.14 0.17 0.20 0.19 0.16 0.14 0.14 0.15 0.14 0.14 0.15 0.15 0.17 0.19 0.19 0.19 0.18 0.19 0.19 0.20 0.20 0.21 0.21 0.22 0.22
0.47 0.44 0.39 0.36 0.33 0.31 0.31 0.30 0.31 0.31 0.34 0.35 0.37 0.33 0.22 0.21 0.17 0.19 0.19 0.23 0.29 0.26 0.25 0.25 0.22 0.21 0.19 0.21 0.22 0.21 0.18 0.19 0.21 0.21 0.23 0.28 0.26 0.20 0.18 0.18 0.16 0.14 0.18 0.19 0.19 0.24 0.19 0.12 0.11 0.15 0.16 0.16 0.15 0.15 0.14 0.12 0.13 0.11 0.11 0.11 0.10 0.11 0.10 0.14 0.15 0.19 0.21 0.15 0.13 0.15 0.14 0.13 0.14 0.15 0.16 0.18 0.18 0.17 0.18 0.18 0.18 0.19 0.20 0.20 0.20 0.21 0.22 0.22
0.47 0.46 0.42 0.38 0.36 0.34 0.31 0.30 0.29 0.30 0.35 0.39 0.34 0.24 0.27 0.25 0.31 0.34 0.22 0.17 0.23 0.26 0.24 0.23 0.23 0.22 0.24 0.22 0.24 0.25 0.23 0.18 0.19 0.22 0.27 0.25 0.23 0.16 0.20 0.19 0.16 0.14 0.21 0.21 0.20 0.16 0.12 0.11 0.15 0.18 0.18 0.18 0.15 0.13 0.13 0.12 0.11 0.13 0.11 0.11 0.10 0.10 0.13 0.18 0.18 0.19 0.19 0.16 0.13 0.14 0.13 0.13 0.14 0.15 0.17 0.18 0.18 0.19 0.19 0.19 0.19 0.19 0.19 0.20 0.22 0.23 0.24 0.25
0.45 0.46 0.42 0.38 0.37 0.37 0.35 0.32 0.29 0.31 0.31 0.27 0.27 0.28 0.24 0.36 0.39 0.34 0.32 0.21 0.19 0.29 0.26 0.23 0.20 0.21 0.21 0.25 0.26 0.27 0.19 0.17 0.18 0.22 0.23 0.24 0.21 0.19 0.19 0.16 0.15 0.17 0.18 0.19 0.13 0.12 0.11 0.16 0.21 0.20 0.19 0.15 0.14 0.14 0.13 0.13 0.13 0.11 0.11 0.11 0.10 0.12 0.11 0.10 0.17 0.18 0.18 0.15 0.13 0.14 0.14 0.14 0.15 0.18 0.18 0.19 0.18 0.18 0.19 0.20 0.20 0.21 0.20 0.20 0.22 0.24 0.25 0.26
0.42 0.45 0.43 0.40 0.38 0.38 0.36 0.34 0.34 0.36 0.25 0.27 0.25 0.25 0.35 0.39 0.38 0.36 0.26 0.17 0.17 0.25 0.26 0.25 0.22 0.22 0.21 0.20 0.26 0.23 0.19 0.21 0.20 0.19 0.27 0.23 0.19 0.24 0.18 0.17 0.15 0.15 0.13 0.15 0.16 0.15 0.13 0.17 0.20 0.18 0.16 0.15 0.12 0.15 0.13 0.12 0.11 0.13 0.13 0.12 0.11 0.12 0.14 0.13 0.14 0.16 0.16 0.16 0.18 0.17 0.15 0.13 0.14 0.16 0.16 0.18 0.20 0.18 0.19 0.20 0.21 0.23 0.24 0.25 0.24 0.25 0.25 0.25
0.43 0.45 0.44 0.42 0.39 0.39 0.38 0.36 0.34 0.25 0.28 0.33 0.26 0.35 0.38 0.40 0.37 0.37 0.20 0.17 0.22 0.24 0.27 0.26 0.26 0.24 0.24 0.31 0.32 0.23 0.24 0.22 0.22 0.24 0.24 0.22 0.19 0.18 0.19 0.23 0.17 0.12 0.17 0.20 0.18 0.14 0.13 0.18 0.21 0.17 0.14 0.14 0.13 0.12 0.13 0.13 0.11 0.11 0.15 0.16 0.15 0.15 0.14 0.14 0.15 0.14 0.12 0.11 0.18 0.16 0.09 0.09 0.14 0.17 0.16 0.17 0.18 0.19 0.20 0.19 0.20 0.21 0.23 0.23 0.23 0.24 0.25 0.26
0.44 0.44 0.43 0.42 0.41 0.38 0.41 0.36 0.37 0.31 0.27 0.28 0.28 0.38 0.38 0.36 0.41 0.35 0.21 0.13 0.11 0.23 0.27 0.22 0.27 0.24 0.29 0.26 0.25 0.24 0.23 0.19 0.27 0.25 0.24 0.24 0.26 0.19 0.20 0.17 0.18 0.13 0.18 0.16 0.14 0.14 0.15 0.17 0.17 0.16 0.15 0.15 0.13 0.12 0.14 0.15 0.12 0.11 0.12 0.16 0.16 0.15 0.14 0.14 0.13 0.13 0.10 0.09 0.15 0.17 0.10 0.07 0.12 0.12 0.16 0.17 0.17 0.17 0.19 0.19 0.20 0.22 0.23 0.23 0.24 0.24 0.25 0.26
0.45 0.44 0.42 0.42 0.41 0.39 0.33 0.31 0.32 0.39 0.31 0.36 0.34 0.39 0.38 0.33 0.40 0.37 0.18 0.15 0.11 0.22 0.16 0.24 0.22 0.27 0.27 0.25 0.22 0.22 0.12 0.22 0.24 0.24 0.24 0.26 0.23 0.30 0.15 0.16 0.20 0.20 0.20 0.20 0.12 0.11 0.18 0.17 0.16 0.16 0.14 0.14 0.13 0.13 0.17 0.16 0.13 0.11 0.18 0.19 0.17 0.15 0.14 0.13 0.13 0.13 0.11 0.14 0.15 0.16 0.14 0.10 0.09 0.12 0.18 0.19 0.17 0.17 0.19 0.20 0.21 0.22 0.23 0.24 0.24 0.25 0.25 0.26
0.45 0.44 0.40 0.40 0.40 0.41 0.32 0.35 0.37 0.34 0.29 0.36 0.41 0.36 0.36 0.37 0.34 0.31 0.19 0.06 0.06 0.16 0.17 0.21 0.22 0.29 0.24 0.23 0.23 0.17 0.18 0.21 0.15 0.28 0.26 0.25 0.25 0.23 0.16 0.14 0.16 0.17 0.19 0.15 0.08 0.20 0.19 0.16 0.15 0.14 0.14 0.13 0.13 0.15 0.17 0.18 0.13 0.13 0.17 0.17 0.15 0.15 0.14 0.14 0.13 0.12 0.13 0.12 0.10 0.13 0.16 0.11 0.11 0.15 0.18 0.19 0.17 0.17 0.18 0.20 0.22 0.23 0.23 0.23 0.24 0.24 0.25 0.26
0.46 0.45 0.42 0.40 0.43 0.45 0.44 0.36 0.36 0.31 0.37 0.41 0.40 0.36 0.34 0.37 0.27 0.15 0.10 0.06 0.21 0.11 0.28 0.20 0.26 0.24 0.23 0.23 0.21 0.21 0.19 0.22 0.13 0.22 0.23 0.23 0.24 0.21 0.15 0.20 0.20 0.18 0.19 0.16 0.11 0.14 0.19 0.17 0.18 0.17 0.14 0.12 0.16 0.17 0.17 0.17 0.12 0.18 0.19 0.18 0.16 0.16 0.15 0.15 0.13 0.13 0.13 0.12 0.08 0.12 0.15 0.10 0.10 0.15 0.15 0.17 0.16 0.17 0.18 0.20 0.22 0.23 0.22 0.23 0.24 0.25 0.26 0.26
0.47 0.47 0.45 0.41 0.45 0.48 0.38 0.48 0.35 0.39 0.41 0.40 0.39 0.37 0.36 0.28 0.23 0.16 0.10 0.06 0.12 0.10 0.14 0.18 0.18 0.15 0.19 0.14 0.16 0.21 0.17 0.20 0.19 0.20 0.23 0.20 0.22 0.22 0.21 0.25 0.19 0.18 0.16 0.19 0.17 0.18 0.20 0.22 0.22 0.17 0.15 0.16 0.16 0.17 0.17 0.17 0.17 0.19 0.17 0.14 0.14 0.15 0.16 0.17 0.16 0.15 0.13 0.09 0.10 0.14 0.16 0.14 0.09 0.12 0.14 0.14 0.15 0.18 0.19 0.21 0.22 0.23 0.23 0.24 0.25 0.26 0.26 0.27
0.48 0.48 0.44 0.42 0.34 0.37 0.43 0.39 0.38 0.43 0.41 0.41 0.40 0.36 0.28 0.27 0.13 0.07 0.05 0.10 0.13 0.14 0.20 0.18 0.14 0.19 0.13 0.11 0.10 0.17 0.18 0.19 0.17 0.18 0.18 0.24 0.20 0.22 0.24 0.21 0.25 0.16 0.15 0.18 0.18 0.20 0.20 0.19 0.17 0.20 0.22 0.20 0.18 0.15 0.19 0.19 0.18 0.16 0.14 0.13 0.13 0.12 0.16 0.15 0.14 0.15 0.09 0.08 0.13 0.15 0.15 0.15 0.09 0.11 0.14 0.18 0.20 0.21 0.21 0.20 0.21 0.23 0.24 0.25 0.26 0.26 0.27 0.27
0.48 0.47 0.41 0.40 0.42 0.47 0.31 0.31 0.37 0.43 0.42 0.41 0.36 0.25 0.22 0.11 0.14 0.07 0.07 0.17 0.08 0.11 0.10 0.10 0.15 0.13 0.12 0.15 0.13 0.15 0.13 0.16 0.19 0.17 0.14 0.15 0.14 0.15 0.16 0.12 0.14 0.09 0.09 0.12 0.11 0.18 0.15 0.17 0.20 0.19 0.22 0.18 0.18 0.14 0.16 0.18 0.18 0.16 0.14 0.14 0.09 0.08 0.10 0.08 0.11 0.08 0.10 0.09 0.12 0.15 0.15 0.12 0.11 0.13 0.15 0.18 0.21 0.22 0.24 0.24 0.24 0.24 0.25 0.25 0.26 0.26 0.27 0.28
0.47 0.43 0.41 0.40 0.43 0.40 0.39 0.41 0.43 0.42 0.41 0.38 0.27 0.26 0.15 0.08 0.05 0.09 0.07 0.07 0.08 0.12 0.11 0.15 0.11 0.12 0.14 0.13 0.14 0.14 0.19 0.13 0.18 0.18 0.17 0.18 0.16 0.16 0.18 0.16 0.15 0.14 0.08 0.10 0.10 0.10 0.12 0.17 0.18 0.19 0.19 0.21 0.17 0.11 0.12 0.12 0.15 0.14 0.12 0.11 0.09 0.07 0.06 0.05 0.07 0.09 0.09 0.12 0.15 0.14 0.15 0.11 0.12 0.15 0.19 0.19 0.22 0.24 0.25 0.25 0.26 0.26 0.26 0.26 0.26 0.27 0.28 0.29
0.44 0.43 0.44 0.38 0.42 0.42 0.42 0.42 0.40 0.39 0.36 0.34 0.26 0.21 0.17 0.07 0.06 0.10 0.08 0.10 0.10 0.16 0.15 0.14 0.13 0.14 0.15 0.11 0.12 0.14 0.11 0.17 0.14 0.14 0.16 0.14 0.16 0.13 0.15 0.16 0.16 0.14 0.14 0.11 0.09 0.10 0.07 0.08 0.15 0.15 0.13 0.19 0.16 0.15 0.13 0.12 0.13 0.13 0.15 0.13 0.11 0.09 0.07 0.06 0.07 0.06 0.07 0.09 0.11 0.14 0.11 0.10 0.11 0.15 0.22 0.23 0.25 0.26 0.26 0.27 0.27 0.27 0.27 0.28 0.28 0.29 0.29 0.29
0.44 0.45 0.40 0.40 0.43 0.46 0.42 0.39 0.37 0.37 0.32 0.28 0.22 0.18 0.10 0.10 0.10 0.09 0.10 0.12 0.13 0.13 0.11 0.15 0.12 0.12 0.13 0.13 0.15 0.15 0.12 0.10 0.15 0.12 0.13 0.12 0.11 0.11 0.11 0.12 0.16 0.15 0.14 0.09 0.13 0.10 0.10 0.10 0.16 0.18 0.17 0.17 0.15 0.18 0.17 0.15 0.12 0.15 0.15 0.15 0.11 0.11 0.14 0.09 0.10 0.09 0.09 0.09 0.10 0.12 0.11 0.14 0.15 0.22 0.24 0.26 0.26 0.26 0.26 0.26 0.27 0.26 0.27 0.28 0.28 0.28 0.29 0.30
0.45 0.48 0.43 0.38 0.34 0.39 0.38 0.37 0.35 0.34 0.28 0.23 0.18 0.13 0.12 0.12 0.10 0.12 0.12 0.16 0.16 0.11 0.10 0.12 0.16 0.10 0.11 0.12 0.13 0.12 0.19 0.10 0.11 0.11 0.10 0.12 0.12 0.12 0.14 0.14 0.13 0.16 0.12 0.10 0.12 0.09 0.10 0.08 0.16 0.16 0.16 0.15 0.16 0.17 0.17 0.17 0.08 0.13 0.13 0.10 0.13 0.17 0.15 0.11 0.11 0.13 0.13 0.12 0.10 0.15 0.15 0.18 0.21 0.22 0.24 0.25 0.25 0.25 0.26 0.26 0.26 0.27 0.27 0.28 0.28 0.29 0.29 0.29
0.43 0.46 0.39 0.38 0.34 0.33 0.34 0.35 0.33 0.28 0.25 0.21 0.14 0.11 0.13 0.14 0.13 0.15 0.15 0.12 0.13 0.13 0.11 0.07 0.10 0.08 0.08 0.08 0.09 0.10 0.11 0.12 0.12 0.09 0.08 0.12 0.11 0.14 0.14 0.15 0.18 0.17 0.17 0.14 0.12 0.15 0.09 0.08 0.13 0.14 0.13 0.18 0.19 0.17 0.18 0.18 0.17 0.14 0.10 0.14 0.17 0.19 0.17 0.13 0.09 0.11 0.11 0.09 0.10 0.14 0.13 0.15 0.16 0.14 0.23 0.23 0.23 0.24 0.26 0.26 0.27 0.28 0.28 0.28 0.28 0.29 0.28 0.28
0.36 0.36 0.31 0.30 0.29 0.31 0.34 0.33 0.29 0.26 0.23 0.17 0.12 0.11 0.16 0.13 0.19 0.15 0.17 0.16 0.15 0.15 0.10 0.09 0.10 0.11 0.08 0.07 0.07 0.08 0.09 0.08 0.09 0.10 0.08 0.11 0.10 0.18 0.16 0.14 0.17 0.17 0.17 0.19 0.12 0.13 0.14 0.08 0.12 0.15 0.15 0.17 0.18 0.17 0.15 0.19 0.20 0.15 0.14 0.20 0.13 0.10 0.10 0.15 0.13 0.09 0.09 0.09 0.10 0.12 0.14 0.15 0.17 0.17 0.21 0.21 0.23 0.24 0.25 0.27 0.27 0.27 0.28 0.28 0.28 0.28 0.28 0.28
0.38 0.32 0.25 0.28 0.29 0.29 0.33 0.31 0.26 0.22 0.20 0.14 0.13 0.11 0.18 0.14 0.17 0.15 0.16 0.16 0.15 0.12 0.09 0.11 0.08 0.10 0.09 0.07 0.08 0.09 0.09 0.07 0.09 0.09 0.07 0.11 0.08 0.17 0.14 0.17 0.17 0.19 0.17 0.18 0.14 0.14 0.14 0.09 0.10 0.15 0.14 0.15 0.15 0.16 0.10 0.14 0.19 0.20 0.21 0.17 0.20 0.16 0.14 0.12 0.15 0.15 0.14 0.11 0.11 0.11 0.14 0.13 0.18 0.19 0.22 0.23 0.24 0.25 0.25 0.26 0.27 0.28 0.28 0.28 0.28 0.28 0.28 0.27
0.29 0.20 0.25 0.27 0.29 0.30 0.30 0.29 0.22 0.22 0.16 0.10 0.10 0.10 0.13 0.12 0.14 0.16 0.18 0.15 0.12 0.11 0.10 0.08 0.11 0.08 0.09 0.09 0.09 0.08 0.10 0.09 0.09 0.09 0.10 0.12 0.10 0.19 0.15 0.20 0.16 0.17 0.18 0.18 0.14 0.17 0.11 0.14 0.08 0.11 0.16 0.15 0.11 0.15 0.13 0.15 0.14 0.16 0.16 0.16 0.18 0.18 0.20 0.18 0.17 0.15 0.13 0.11 0.11 0.11 0.11 0.16 0.21 0.24 0.24 0.24 0.25 0.26 0.27 0.27 0.28 0.28 0.28 0.28 0.28 0.28 0.26 0.26
0.25 0.18 0.24 0.26 0.28 0.28 0.30 0.25 0.15 0.09 0.09 0.11 0.12 0.10 0.12 0.11 0.14 0.16 0.17 0.18 0.15 0.18 0.11 0.10 0.10 0.08 0.10 0.09 0.10 0.12 0.10 0.10 0.10 0.10 0.10 0.11 0.11 0.10 0.18 0.16 0.18 0.15 0.17 0.16 0.15 0.16 0.12 0.12 0.09 0.11 0.11 0.11 0.13 0.18 0.18 0.18 0.18 0.16 0.15 0.15 0.17 0.16 0.14 0.11 0.10 0.18 0.16 0.14 0.12 0.12 0.12 0.17 0.23 0.26 0.26 0.26 0.27 0.28 0.28 0.28 0.28 0.28 0.28 0.27 0.26 0.25 0.25 0.25
0.18 0.12 0.18 0.23 0.25 0.23 0.19 0.14 0.09 0.10 0.10 0.08 0.08 0.10 0.11 0.17 0.14 0.14 0.14 0.16 0.15 0.12 0.17 0.12 0.13 0.11 0.11 0.12 0.12 0.11 0.11 0.10 0.11 0.11 0.13 0.10 0.15 0.12 0.16 0.20 0.19 0.18 0.14 0.12 0.13 0.17 0.16 0.14 0.11 0.10 0.12 0.13 0.16 0.19 0.21 0.21 0.20 0.19 0.18 0.16 0.18 0.17 0.16 0.14 0.10 0.13 0.17 0.18 0.20 0.18 0.16 0.17 0.25 0.27 0.27 0.27 0.27 0.28 0.29 0.29 0.27 0.27 0.26 0.25 0.24 0.25 0.25 0.24
0.13 0.12 0.22 0.22 0.21 0.19 0.16 0.12 0.13 0.12 0.09 0.10 0.15 0.15 0.15 0.14 0.11 0.13 0.12 0.15 0.12 0.15 0.13 0.14 0.13 0.11 0.15 0.11 0.12 0.11 0.13 0.10 0.11 0.11 0.12 0.12 0.13 0.15 0.18 0.19 0.21 0.19 0.18 0.15 0.17 0.19 0.19 0.12 0.12 0.13 0.15 0.18 0.19 0.20 0.21 0.21 0.20 0.19 0.18 0.18 0.17 0.15 0.17 0.16 0.17 0.19 0.17 0.17 0.17 0.17 0.16 0.19 0.26 0.28 0.28 0.28 0.29 0.30 0.30 0.28 0.26 0.24 0.24 0.24 0.23 0.23 0.23 0.23
0.13 0.13 0.16 0.23 0.24 0.16 0.15 0.05 0.07 0.08 0.09 0.12 0.12 0.12 0.14 0.13 0.13 0.12 0.13 0.14 0.13 0.12 0.12 0.13 0.15 0.16 0.12 0.15 0.13 0.11 0.14 0.08 0.16 0.12 0.11 0.13 0.12 0.21 0.19 0.19 0.21 0.17 0.16 0.16 0.14 0.20 0.13 0.16 0.14 0.11 0.11 0.12 0.14 0.17 0.17 0.20 0.19 0.17 0.16 0.18 0.19 0.21 0.21 0.22 0.22 0.22 0.18 0.18 0.19 0.18 0.15 0.19 0.26 0.29 0.29 0.29 0.29 0.28 0.26 0.25 0.24 0.22 0.22 0.22 0.22 0.22 0.22 0.21
0.15 0.20 0.14 0.16 0.18 0.17 0.11 0.10 0.10 0.08 0.08 0.08 0.09 0.09 0.09 0.13 0.15 0.15 0.14 0.14 0.16 0.15 0.13 0.13 0.14 0.14 0.14 0.16 0.13 0.14 0.15 0.12 0.10 0.13 0.13 0.13 0.13 0.19 0.20 0.20 0.21 0.19 0.22 0.23 0.22 0.24 0.16 0.15 0.14 0.10 0.08 0.07 0.07 0.08 0.10 0.12 0.14 0.17 0.19 0.21 0.22 0.22 0.22 0.21 0.18 0.20 0.17 0.20 0.22 0.19 0.19 0.23 0.27 0.28 0.26 0.26 0.24 0.22 0.22 0.22 0.22 0.22 0.21 0.20 0.20 0.20 0.20 0.20
0.10 0.07 0.13 0.17 0.16 0.14 0.12 0.15 0.11 0.09 0.10 0.08 0.09 0.10 0.11 0.11 0.16 0.16 0.17 0.16 0.17 0.16 0.15 0.15 0.17 0.16 0.13 0.14 0.13 0.14 0.15 0.17 0.13 0.11 0.12 0.12 0.15 0.18 0.19 0.22 0.22 0.23 0.23 0.24 0.23 0.22 0.16 0.17 0.15 0.13 0.11 0.10 0.11 0.13 0.17 0.19 0.18 0.17 0.20 0.21 0.22 0.24 0.25 0.24 0.23 0.20 0.19 0.21 0.20 0.21 0.22 0.21 0.21 0.22 0.21 0.20 0.19 0.19 0.19 0.20 0.20 0.19 0.19 0.19 0.20 0.20 0.21 0.22
0.13 0.09 0.07 0.07 0.13 0.16 0.11 0.14 0.11 0.11 0.09 0.11 0.09 0.10 0.09 0.11 0.13 0.16 0.19 0.14 0.18 0.16 0.16 0.16 0.15 0.14 0.15 0.15 0.13 0.12 0.15 0.14 0.16 0.15 0.14 0.14 0.17 0.18 0.22 0.23 0.24 0.24 0.24 0.23 0.24 0.20 0.16 0.12 0.14 0.14 0.14 0.15 0.17 0.18 0.20 0.21 0.19 0.20 0.20 0.21 0.24 0.25 0.25 0.23 0.21 0.20 0.24 0.20 0.16 0.21 0.21 0.17 0.16 0.17 0.18 0.18 0.19 0.19 0.19 0.19 0.18 0.18 0.18 0.19 0.20 0.21 0.21 0.22
0.10 0.11 0.14 0.12 0.09 0.08 0.09 0.11 0.13 0.13 0.13 0.15 0.11 0.13 0.11 0.11 0.13 0.11 0.17 0.17 0.17 0.19 0.14 0.18 0.16 0.16 0.15 0.14 0.14 0.11 0.13 0.13 0.15 0.15 0.18 0.18 0.17 0.19 0.19 0.25 0.22 0.23 0.23 0.20 0.21 0.17 0.14 0.11 0.16 0.17 0.18 0.20 0.21 0.21 0.22 0.22 0.22 0.22 0.23 0.24 0.23 0.25 0.25 0.22 0.22 0.22 0.21 0.17 0.14 0.16 0.16 0.14 0.15 0.16 0.18 0.19 0.19 0.19 0.18 0.18 0.19 0.20 0.20 0.20 0.20 0.20 0.21 0.21
0.14 0.14 0.14 0.17 0.13 0.13 0.12 0.13 0.14 0.14 0.14 0.13 0.13 0.13 0.12 0.13 0.13 0.14 0.13 0.14 0.18 0.17 0.17 0.12 0.15 0.16 0.15 0.16 0.14 0.13 0.15 0.13 0.14 0.18 0.16 0.16 0.16 0.16 0.15 0.18 0.22 0.22 0.20 0.18 0.18 0.19 0.17 0.16 0.20 0.21 0.19 0.20 0.22 0.23 0.24 0.23 0.23 0.24 0.23 0.24 0.23 0.22 0.21 0.20 0.19 0.18 0.17 0.15 0.16 0.15 0.14 0.14 0.16 0.17 0.18 0.18 0.19 0.19 0.19 0.20 0.21 0.20 0.19 0.18 0.19 0.20 0.20 0.19
0.16 0.15 0.16 0.16 0.17 0.15 0.14 0.14 0.14 0.15 0.14 0.14 0.13 0.14 0.13 0.13 0.13 0.15 0.18 0.15 0.13 0.16 0.18 0.15 0.16 0.16 0.17 0.17 0.17 0.15 0.18 0.18 0.17 0.15 0.17 0.16 0.15 0.16 0.14 0.14 0.14 0.18 0.19 0.18 0.20 0.23 0.20 0.18 0.21 0.20 0.19 0.20 0.23 0.24 0.24 0.24 0.24 0.22 0.23 0.22 0.22 0.19 0.18 0.17 0.16 0.16 0.16 0.15 0.15 0.14 0.13 0.13 0.17 0.19 0.19 0.19 0.20 0.20 0.20 0.19 0.19 0.18 0.17 0.17 0.19 0.19 0.18 0.18
0.20 0.21 0.21 0.17 0.16 0.16 0.15 0.14 0.14 0.14 0.15 0.15 0.13 0.15 0.15 0.16 0.15 0.16 0.16 0.20 0.16 0.15 0.16 0.15 0.17 0.16 0.18 0.19 0.19 0.18 0.22 0.20 0.19 0.19 0.20 0.18 0.13 0.17 0.14 0.14 0.18 0.17 0.21 0.22 0.23 0.23 0.22 0.19 0.23 0.22 0.19 0.20 0.23 0.24 0.24 0.24 0.23 0.21 0.20 0.20 0.17 0.15 0.14 0.15 0.14 0.15 0.14 0.12 0.13 0.13 0.13 0.14 0.17 0.18 0.19 0.19 0.19 0.18 0.18 0.18 0.17 0.16 0.15 0.18 0.17 0.17 0.17 0.16
0.24 0.25 0.24 0.19 0.15 0.16 0.14 0.15 0.16 0.16 0.14 0.14 0.15 0.16 0.14 0.16 0.17 0.17 0.14 0.20 0.18 0.18 0.18 0.18 0.18 0.18 0.18 0.19 0.18 0.20 0.21 0.21 0.21 0.21 0.21 0.21 0.21 0.20 0.21 0.22 0.24 0.22 0.22 0.23 0.24 0.22 0.23 0.22 0.21 0.22 0.19 0.19 0.22 0.24 0.23 0.22 0.20 0.16 0.17 0.16 0.15 0.15 0.15 0.16 0.16 0.16 0.16 0.15 0.13 0.13 0.14 0.17 0.18 0.19 0.17 0.17 0.17 0.16 0.16 0.17 0.17 0.14 0.14 0.16 0.16 0.16 0.15 0.14
Wind_Speed
6 6 7 7 7 7 7 7 8 8 8 8 9 9 9 10 10 10 9 9 9 9 9 9 9 9 9 10 10 10 10 9 9 8 8 9 10 11 11 11 11 11 11 11 10 11 11 11 11 10 11 10 10 9 10 10 10 10 10 10 11 11 11 10 10 9 10 11 11 12 12 14 13 13 14 15 16 17 17 18 18 18 17 17 17 16 15 15
6 7 7 7 7 7 7 7 8 8 8 8 9 9 10 10 10 9 9 9 9 9 9 9 10 10 10 10 10 10 10 9 9 9 8 10 11 11 12 12 11 11 11 11 11 12 12 11 10 10 11 10 10 9 10 10 10 11 10 11 11 11 11 10 10 10 11 12 12 12 13 15 14 13 14 15 17 17 18 18 18 19 18 16 17 17 17 17
6 7 7 7 7 7 7 7 7 8 8 8 9 9 10 10 10 9 9 9 9 9 9 10 10 10 11 11 11 10 10 10 10 9 10 11 12 12 12 12 12 12 11 12 12 12 12 12 11 11 12 11 10 10 10 10 10 11 11 11 11 11 11 10 11 10 12 13 13 13 13 15 15 14 14 16 18 18 19 18 17 19 19 18 18 18 19 19
6 7 7 7 7 7 7 7 8 8 8 9 9 10 10 10 10 10 9 9 9 9 9 10 10 11 11 11 11 10 10 11 10 10 11 12 12 12 12 12 12 12 12 12 12 12 12 12 12 12 12 11 11 10 11 10 10 11 11 12 11 12 12 11 10 11 12 13 14 14 13 15 16 15 15 16 18 18 19 19 19 19 20 20 19 19 20 20
7 7 7 7 7 7 7 7 8 9 9 9 10 10 11 11 10 10 9 9 9 9 10 10 11 11 10 10 10 10 10 10 10 10 12 12 12 12 12 12 12 13 12 12 12 12 12 13 12 12 12 12 11 11 11 10 10 11 13 14 13 12 12 11 10 11 12 13 15 15 14 15 16 15 16 17 18 18 17 18 19 19 20 20 19 19 20 21
7 7 7 7 7 7 8 8 8 9 9 10 10 10 11 10 10 9 9 9 9 9 10 10 10 10 10 10 10 10 11 10 10 11 12 12 12 12 12 12 13 13 12 12 12 12 12 13 12 12 12 12 12 11 11 10 11 12 13 13 12 12 13 12 11 12 13 14 15 15 15 16 15 16 17 18 19 19 18 17 18 18 18 19 19 19 20 22
8 8 8 7 7 8 8 8 9 9 10 10 10 10 10 10 9 9 9 9 9 9 10 10 10 10 10 10 10 11 12 10 10 12 12 12 12 12 12 12 13 13 12 12 12 12 12 12 13 13 12 12 12 11 10 11 12 12 13 13 12 12 13 12 12 13 13 14 15 15 16 16 16 17 18 19 20 20 19 18 18 18 19 19 19 20 22 23
8 7 7 7 7 7 8 8 9 9 10 10 10 10 10 10 9 9 10 10 10 10 10 10 10 10 10 11 11 12 12 11 11 12 12 12 12 12 12 12 12 12 12 13 12 12 12 13 13 12 12 11 12 11 11 12 13 13 13 13 12 12 12 12 12 13 13 14 15 15 16 16 17 18 19 21 20 20 19 18 18 19 20 20 21 22 23 24
7 6 6 6 6 6 7 8 9 9 10 10 10 10 10 10 10 10 10 10 10 11 11 11 11 11 11 11 12 12 11 11 12 13 12 12 12 12 12 12 12 12 13 12 12 12 12 12 13 12 12 11 11 11 11 12 12 12 13 13 13 13 12 12 13 13 14 14 15 16 17 17 18 18 19 21 21 20 20 19 19 20 21 22 23 23 24 25
5 4 4 5 5 6 7 8 8 9 9 9 10 10 10 10 10 11 11 11 11 11 11 11 11 11 12 12 13 12 11 12 13 12 12 12 12 12 11 11 12 12 12 12 12 13 13 12 12 12 12 12 11 11 11 12 12 12 13 14 14 14 13 13 14 14 14 15 15 16 17 18 17 15 18 20 19 19 19 20 20 20 22 23 24 24 25 25
4 3 4 4 5 6 7 8 8 9 9 9 10 10 10 11 11 11 12 12 11 11 12 12 12 12 13 13 14 13 12 13 13 12 12 12 12 11 11 11 11 11 11 11 12 12 13 13 12 11 11 11 11 11 12 12 12 12 13 14 15 15 14 14 15 15 14 15 15 16 18 19 17 15 20 21 19 18 19 20 20 21 23 24 24 25 25 26
4 4 4 4 5 7 7 8 9 9 9 10 10 10 11 11 11 12 12 12 12 12 12 13 13 13 13 13 13 12 12 13 13 12 12 12 12 11 11 11 11 11 10 11 11 12 12 13 13 12 11 12 11 11 12 12 12 13 13 14 15 15 16 15 15 15 14 14 15 16 18 18 16 18 22 22 20 20 20 21 22 23 24 25 25 25 26 26
4 5 5 6 6 7 8 9 9 10 10 10 10 11 11 12 12 12 12 12 12 13 13 13 13 13 13 13 12 12 13 13 12 12 12 12 12 11 11 11 10 10 10 11 11 11 12 12 12 12 12 12 12 11 12 12 13 13 14 15 15 16 16 15 14 14 14 15 15 16 18 18 17 20 23 21 19 20 21 22 23 24 25 25 25 25 25 25
5 5 6 7 7 8 9 10 10 10 11 11 12 12 13 13 13 13 13 13 13 13 13 13 13 12 12 12 12 12 12 12 12 12 11 11 11 11 11 10 10 10 10 10 11 11 11 12 12 11 12 12 11 11 12 12 13 14 14 14 14 15 15 13 12 13 15 16 16 17 19 19 19 21 21 19 19 21 22 23 24 25 25 24 24 23 24 23
6 6 7 7 8 9 9 10 10 11 12 13 13 14 14 14 14 14 13 12 13 13 13 13 12 12 12 12 12 12 12 12 11 11 11 11 11 11 11 11 10 10 10 10 11 11 11 11 11 11 11 11 11 12 13 13 13 14 14 15 14 14 15 14 13 15 16 17 17 17 19 21 21 20 19 19 20 22 23 24 25 25 25 24 23 22 23 23
6 7 7 8 8 9 10 11 11 12 13 14 14 15 15 15 14 13 12 12 12 12 12 12 11 12 12 11 11 12 11 11 11 11 11 11 11 11 11 12 11 11 11 11 11 11 11 11 11 11 11 11 12 13 14 14 14 14 14 15 15 15 16 16 16 17 17 18 18 19 21 22 22 20 20 21 22 23 24 25 25 24 24 25 24 22 22 22
7 7 8 8 9 10 11 11 12 13 13 14 14 14 14 13 13 12 11 12 12 12 11 11 11 11 11 10 10 10 10 11 11 11 11 11 11 11 12 12 11 11 11 11 11 11 11 11 11 11 11 12 13 13 14 14 14 14 14 16 16 16 17 17 19 19 18 19 21 22 23 24 24 23 24 24 24 24 24 25 25 24 24 24 24 23 23 23
7 8 9 9 10 11 11 12 12 13 13 14 14 13 13 12 11 11 11 11 12 11 11 11 11 10 10 9 10 10 11 12 11 11 11 11 11 11 12 12 12 12 12 11 11 11 11 11 11 12 12 13 13 13 14 14 14 14 16 17 18 18 19 20 20 20 20 21 22 23 25 26 25 25 26 26 25 25 25 25 24 23 23 24 24 24 24 23
8 9 10 10 11 12 12 13 13 13 14 14 13 13 12 11 11 10 10 11 11 11 10 10 10 10 10 9 10 11 12 12 11 11 11 11 11 12 12 12 12 12 12 11 11 11 11 11 11 12 13 13 13 14 15 15 14 16 17 18 20 20 21 21 20 20 21 22 23 24 25 27 26 26 26 26 25 25 24 23 23 22 22 23 23 24 24 23
9 10 11 11 12 12 13 13 13 14 14 13 13 12 11 10 10 9 9 11 10 10 10 10 10 11 10 10 11 12 12 11 11 11 10 11 11 12 12 12 12 12 12 12 11 11 11 12 13 13 14 13 13 14 16 16 16 17 19 19 21 21 22 21 19 20 21 22 24 24 26 27 27 27 26 26 25 23 22 21 21 22 22 22 22 23 23 24
10 11 11 12 13 13 14 14 13 14 14 13 13 12 10 10 10 9 10 10 10 10 10 10 10 11 10 10 11 12 11 11 11 10 10 11 11 12 11 11 12 12 12 12 12 11 12 14 14 13 14 14 14 15 16 17 17 18 19 20 21 21 22 20 19 20 21 22 24 25 27 28 28 28 27 25 23 20 19 20 21 22 21 21 21 22 23 23
11 11 12 13 13 14 14 14 14 14 14 12 12 11 10 10 10 10 11 10 9 10 10 10 10 10 10 10 10 11 10 11 10 9 10 12 11 11 11 11 12 12 11 12 12 12 13 14 13 13 15 14 15 16 16 17 18 19 19 20 21 21 20 19 19 21 21 22 25 26 27 27 28 27 25 22 19 18 19 20 20 21 20 20 21 22 23 23
12 12 13 13 14 14 15 14 13 14 13 12 11 10 9 10 10 10 10 11 10 10 10 9 9 9 9 9 10 10 10 10 10 9 11 12 10 11 11 11 13 13 12 12 13 14 14 13 13 14 16 16 16 16 17 18 18 19 19 20 21 20 19 20 21 22 22 23 25 26 26 27 27 24 21 19 18 19 20 19 19 20 20 20 21 22 22 22
13 13 13 14 15 15 15 15 13 13 13 11 10 10 10 10 10 10 11 11 10 9 8 8 8 8 8 9 9 10 9 10 10 10 11 11 10 11 11 11 12 13 13 13 14 15 15 13 14 16 17 17 17 17 17 19 19 19 19 19 21 20 20 21 22 24 25 24 24 24 25 25 23 20 19 19 19 19 19 18 18 19 20 20 21 21 21 21
13 13 14 15 15 15 15 14 13 13 12 11 10 10 10 10 10 11 11 10 9 8 7 7 8 8 8 8 9 9 9 10 10 10 11 11 11 11 11 11 12 12 12 13 14 15 15 14 15 17 16 16 17 18 18 18 20 20 18 19 20 20 21 22 23 24 25 23 22 21 23 23 21 19 19 20 20 19 19 19 19 19 20 21 21 21 21 21
13 14 15 15 15 16 15 12 12 13 12 11 10 10 10 10 10 11 10 10 8 7 7 7 7 8 8 8 9 10 10 9 9 10 11 10 11 11 11 11 12 12 12 13 14 15 14 14 15 16 17 17 18 19 18 17 19 20 19 19 20 20 21 22 23 23 23 23 22 22 22 23 24 22 19 19 20 20 20 20 19 20 20 21 21 22 22 22
14 14 15 16 16 16 14 12 13 13 11 11 11 11 10 10 10 11 10 8 7 7 7 7 7 8 8 9 10 10 10 10 10 10 10 10 10 11 12 12 12 12 13 14 14 14 13 14 16 16 17 18 18 19 18 18 19 20 20 20 20 21 22 22 23 23 23 25 25 23 21 23 25 22 18 18 19 19 20 20 20 21 21 21 22 22 23 23
14 15 16 16 16 15 14 14 13 12 11 11 11 10 10 10 11 10 9 7 6 7 7 7 8 8 9 10 11 10 10 11 11 10 10 11 11 11 12 13 13 13 13 13 15 15 14 15 16 16 17 18 18 17 18 19 18 19 19 20 21 22 22 23 23 24 24 24 24 22 19 20 23 20 17 18 18 19 21 21 21 22 22 22 23 23 23 24
14 15 16 17 16 15 14 14 12 11 11 11 11 10 10 10 10 9 7 7 7 7 8 8 8 9 10 11 11 10 11 11 10 11 11 11 12 11 12 13 13 14 13 14 15 15 15 15 16 16 17 17 17 17 18 19 18 19 20 20 22 22 22 22 22 23 23 22 24 22 18 19 22 19 17 18 19 20 21 22 22 22 22 23 23 23 23 23
15 16 17 17 16 15 14 13 12 11 11 11 10 10 10 10 9 8 7 7 7 8 8 8 8 10 11 12 11 11 11 10 11 12 11 11 11 11 12 13 13 13 14 14 15 14 13 15 16 16 16 17 17 17 17 18 19 20 21 22 23 22 20 21 21 21 21 21 22 21 18 19 21 20 19 19 20 21 21 22 23 23 22 22 22 22 23 23
16 16 16 17 15 15 14 12 12 11 11 10 10 10 10 9 8 8 7 8 8 9 8 8 10 11 12 12 11 12 11 10 11 11 11 11 11 12 12 12 12 14 14 13 14 13 13 15 15 16 16 17 17 17 16 18 19 20 21 22 22 21 19 20 20 19 19 20 20 19 19 20 20 21 21 21 21 20 21 23 23 23 22 22 22 22 22 23
16 16 16 16 15 14 13 12 12 11 10 10 10 10 9 8 7 7 8 9 9 9 9 10 11 12 12 11 11 11 11 10 11 10 10 11 11 12 12 12 13 14 13 13 14 14 14 15 15 15 16 16 17 17 18 19 20 20 21 21 21 21 20 20 19 19 19 19 19 19 20 22 23 23 22 21 21 20 21 22 22 22 22 22 22 22 22 23
15 16 15 15 15 13 12 12 11 11 10 10 10 9 8 8 8 7 9 10 9 10 11 11 12 12 12 12 11 11 10 10 11 10 11 12 11 11 12 13 13 13 13 14 16 15 15 15 15 14 15 16 17 19 19 20 20 21 21 20 20 19 20 21 20 20 20 19 21 22 22 23 25 23 20 19 19 19 19 19 19 20 21 22 22 22 23 24
15 16 15 14 14 13 12 12 11 10 10 9 9 9 8 8 8 8 10 10 10 11 11 11 12 13 11 10 10 10 11 11 11 12 12 11 11 12 13 13 13 13 14 15 15 14 15 15 15 15 16 17 19 19 19 20 21 21 19 19 20 19 20 21 20 21 22 22 23 23 21 22 22 21 19 18 17 17 17 18 19 20 21 22 22 23 25 27
15 15 14 14 13 12 12 11 10 10 9 9 9 9 8 8 9 9 10 10 11 12 12 11 11 11 10 9 10 11 11 11 12 12 12 12 12 13 12 12 13 13 14 14 14 15 15 16 16 17 18 19 20 19 19 20 20 20 19 19 20 19 20 21 22 23 24 24 23 21 21 21 20 19 18 17 16 16 18 19 19 20 22 23 24 26 27 29
15 14 14 13 12 12 11 10 10 9 9 9 9 9 8 9 10 10 10 11 11 12 13 12 10 11 10 10 11 12 12 12 13 13 12 11 12 12 12 12 14 14 14 14 15 16 16 17 17 18 19 19 19 19 20 20 20 20 20 20 20 19 20 22 23 23 23 22 21 19 19 20 19 19 19 17 17 18 19 20 21 22 24 25 26 29 30 32
14 13 13 12 11 11 11 10 10 9 9 10 9 9 9 9 9 10 10 11 10 11 12 12 10 10 11 11 12 13 13 13 12 13 13 12 12 13 12 13 15 15 14 15 16 16 18 20 19 18 19 19 19 20 21 20 20 20 20 20 21 20 20 20 21 21 20 21 20 19 20 20 20 20 20 18 18 20 20 22 23 24 26 28 29 31 32 34
13 13 11 10 10 11 10 9 9 9 9 9 8 8 8 8 9 9 10 11 11 11 11 11 10 10 11 12 13 13 13 13 13 13 13 12 12 14 14 14 15 15 15 16 17 17 19 20 19 18 18 18 19 21 21 20 19 19 20 21 20 19 19 19 19 20 20 21 21 20 21 21 21 19 18 18 19 21 23 25 26 27 29 30 31 33 35 37
13 11 10 9 10 10 9 9 9 8 8 8 8 7 8 8 8 9 10 11 11 11 11 11 11 11 12 13 13 13 13 13 14 14 13 13 13 15 15 15 15 15 17 18 18 19 19 19 19 19 19 20 20 20 19 19 20 20 20 20 19 18 19 19 19 20 20 21 21 21 20 19 18 17 17 19 22 24 26 27 28 29 30 32 34 36 38 40
11 9 8 9 10 10 9 9 8 8 8 7 7 8 8 8 9 9 11 11 11 11 11 12 12 12 13 13 13 13 13 13 14 14 14 14 14 15 15 16 17 18 19 19 19 20 19 18 19 21 21 21 21 20 19 19 20 20 20 19 18 18 18 19 20 20 20 20 20 21 20 18 18 20 20 22 24 25 27 28 29 31 33 35 37 39 40 42
10 8 7 9 10 9 8 8 7 7 7 7 7 8 8 9 9 10 11 11 11 11 11 12 12 12 13 13 13 14 14 14 14 14 14 14 15 15 16 17 19 19 20 19 19 20 19 19 21 22 22 22 21 20 21 21 20 19 19 19 18 19 19 20 21 19 19 20 20 21 22 22 22 22 22 23 24 26 28 29 31 34 36 38 39 40 42 43
8 7 7 9 10 9 8 7 6 7 8 8 8 9 9 10 10 10 11 11 11 12 12 12 12 13 13 14 14 15 15 15 15 14 15 15 15 16 17 19 20 20 20 19 18 19 20 20 21 22 22 21 20 20 21 21 19 18 18 18 19 19 19 20 21 21 21 22 22 23 24 23 22 21 21 24 25 27 30 32 34 36 38 40 41 43 44 45
7 7 7 9 9 8 7 6 7 7 8 8 9 9 10 10 10 11 11 11 12 12 12 12 13 13 14 14 15 15 15 15 15 15 16 16 16 17 18 20 20 20 20 19 19 20 20 20 20 22 21 19 19 19 19 18 18 18 19 19 19 19 19 20 21 22 23 24 23 23 22 21 21 21 23 27 28 30 33 35 37 39 40 42 44 45 46 48
7 7 7 8 9 8 7 6 8 9 8 8 9 10 10 11 11 11 11 12 12 13 13 13 13 14 14 14 15 16 16 16 15 15 17 17 17 18 19 20 20 20 20 19 20 20 19 18 20 21 20 19 17 17 17 18 19 20 20 19 19 19 21 22 22 22 23 23 22 23 23 22 22 25 28 29 31 33 36 38 40 41 42 44 46 47 48 51
7 7 6 8 9 8 6 7 9 10 9 9 10 10 10 11 11 12 12 12 13 13 14 14 14 15 15 15 16 17 16 16 17 17 17 18 18 18 19 19 19 19 19 19 20 19 19 18 19 19 18 18 18 17 18 20 21 21 20 20 21 21 21 22 22 21 22 23 23 24 25 26 27 30 32 33 34 36 38 40 41 41 43 46 48 49 51 53
7 7 7 8 8 8 7 8 10 10 10 10 10 11 11 11 11 12 13 13 13 14 14 15 15 15 16 16 17 18 17 16 17 18 18 19 18 18 19 19 19 19 19 19 19 18 18 18 18 18 18 19 20 20 21 22 23 22 21 21 22 21 21 22 21 21 22 24 24 24 26 30 32 32 33 35 36 37 38 41 43 44 46 48 50 52 54 54
7 7 7 8 8 8 8 9 11 10 10 11 10 11 12 12 11 12 13 13 14 15 16 16 16 17 17 18 18 18 18 17 17 17 18 18 18 18 18 18 18 18 18 18 18 17 18 18 18 18 19 20 21 23 23 22 23 22 22 22 21 20 20 20 20 21 23 24 24 24 28 32 33 33 34 36 37 38 40 43 45 47 49 51 54 56 56 54
7 7 8 8 9 9 9 10 11 11 10 11 11 11 12 13 13 14 15 15 15 16 16 16 17 17 18 18 18 18 18 18 16 16 17 17 18 18 17 17 17 16 17 17 17 17 18 18 18 18 19 21 22 23 22 21 21 21 21 22 21 19 19 19 20 22 23 23 26 28 31 33 33 33 34 36 38 40 43 46 48 49 52 55 57 57 55 54
7 8 8 9 9 9 10 10 11 11 11 11 11 12 13 14 15 15 15 16 16 16 17 17 17 17 17 17 17 17 17 17 16 16 16 16 17 17 17 17 16 16 17 17 17 17 17 17 18 18 20 22 22 21 20 20 19 19 20 21 20 20 20 20 21 23 25 26 28 31 34 33 31 33 36 38 41 44 46 48 49 52 55 58 57 55 54 55
8 8 9 9 9 9 10 10 11 11 11 12 12 13 15 15 15 16 16 17 17 17 17 17 17 17 16 16 16 16 15 15 15 16 16 16 17 17 16 17 16 16 17 16 17 17 17 17 18 19 20 21 19 19 20 19 18 18 19 20 20 20 21 22 23 25 27 28 30 33 34 32 32 36 40 42 44 46 47 50 52 55 57 57 55 54 55 56
8 9 9 10 10 10 10 10 11 12 12 13 14 15 15 15 16 17 17 17 17 17 16 16 16 16 14 13 14 14 14 15 15 16 16 16 17 17 17 17 17 17 16 16 17 17 17 19 20 20 21 20 19 19 20 19 18 18 19 20 21 21 22 23 25 27 29 31 33 33 33 33 37 41 43 44 46 47 50 53 55 57 58 56 54 54 56 57
9 9 10 10 10 10 10 11 12 12 13 13 15 15 15 16 16 17 17 16 15 14 14 14 14 14 13 12 13 14 15 16 16 16 17 17 17 17 16 16 17 17 16 17 17 18 18 19 20 20 20 20 20 21 21 18 18 19 19 21 21 22 23 25 27 29 30 32 33 33 34 37 40 43 45 46 48 50 52 54 56 58 57 54 54 55 56 58
Wind_Direction
287 289 291 291 292 292 292 293 293 295 295 296 297 297 298 298 298 296 294 292 289 287 285 283 283 284 285 284 283 282 278 275 272 272 278 280 284 285 284 281 280 281 280 277 273 273 273 266 259 258 258 255 253 254 254 255 258 261 262 264 268 271 274 279 280 279 278 277 274 271 272 276 278 276 277 279 278 278 278 276 275 275 275 274 272 272 268 265
290 291 291 289 289 289 291 293 295 297 297 298 300 299 300 301 299 296 294 291 287 285 282 281 281 281 283 283 283 281 274 269 267 269 279 283 286 286 283 282 279 279 278 273 275 276 273 269 263 259 258 257 254 255 256 255 256 259 263 265 268 275 276 280 284 282 284 283 280 278 276 279 282 279 280 283 280 276 276 277 274 273 272 272 270 269 267 267
293 292 291 289 287 288 289 293 297 299 300 301 303 303 303 302 298 295 292 289 287 284 282 282 282 279 280 281 282 278 269 267 265 265 277 286 288 286 284 282 278 278 275 271 272 273 273 273 269 261 259 257 254 257 259 258 258 260 262 263 268 278 277 280 284 282 285 285 282 281 281 282 284 286 285 285 283 279 276 276 274 271 269 269 270 269 267 268
296 293 292 290 288 287 290 294 298 300 301 303 304 306 306 305 300 293 289 287 287 284 283 284 283 280 278 279 282 276 268 267 264 265 278 287 288 285 284 281 278 276 273 270 270 269 269 269 265 262 263 259 255 259 261 258 262 266 263 264 271 277 277 280 283 283 284 285 285 284 285 286 285 286 285 285 286 284 280 278 274 271 270 268 268 268 268 269
298 294 293 292 290 290 293 296 298 299 300 302 303 306 306 305 302 295 289 286 286 285 284 286 284 281 278 278 281 276 270 268 267 271 280 287 286 285 284 280 278 277 273 270 269 267 265 264 263 261 262 260 257 260 261 259 265 269 266 269 275 277 277 278 281 284 284 284 285 285 287 289 289 288 284 283 285 285 285 285 282 276 276 274 269 268 269 270
299 295 291 291 292 292 295 297 298 299 300 301 302 304 305 305 303 297 290 287 287 286 286 288 286 282 277 277 279 275 271 269 272 279 284 286 284 283 282 279 277 276 272 268 267 265 263 261 259 258 259 260 259 260 263 264 266 270 270 271 276 278 278 280 281 283 284 284 285 287 291 292 292 290 285 282 281 282 284 287 287 283 282 281 274 272 272 272
301 297 291 289 291 292 296 298 299 299 300 301 302 304 306 305 302 297 291 288 286 287 287 289 287 283 278 276 276 273 269 269 277 284 286 285 283 281 281 279 278 276 271 268 265 264 262 261 260 261 262 263 264 264 267 269 267 269 273 273 274 278 279 281 282 281 283 286 288 292 294 292 290 290 290 284 281 281 282 284 285 283 283 283 279 277 276 275
302 297 290 287 289 294 298 300 300 301 301 302 302 303 305 304 301 298 293 288 286 287 287 288 287 284 280 277 276 273 269 271 281 286 285 283 282 281 280 280 278 276 271 266 264 265 264 263 263 264 264 264 266 268 271 273 268 267 273 276 276 277 277 279 280 279 282 286 290 293 291 289 288 292 292 285 283 284 283 284 283 283 283 282 280 279 279 278
305 298 291 288 292 298 302 304 305 305 304 303 302 302 303 303 301 299 296 291 287 286 286 286 287 285 282 278 277 275 272 275 282 284 283 282 281 280 280 282 281 277 272 267 264 265 266 265 265 266 268 268 269 269 271 273 272 272 278 280 279 277 275 277 278 278 281 285 289 291 289 289 290 293 292 285 285 287 285 284 284 284 283 283 282 281 280 280
317 308 298 295 299 304 307 309 310 310 308 306 304 304 303 302 300 299 298 293 288 287 286 286 286 286 282 278 277 277 275 277 281 282 281 281 280 280 281 285 284 278 272 269 263 262 265 270 272 272 272 270 268 269 270 271 274 276 279 280 279 278 276 275 277 278 281 285 285 288 291 291 292 295 292 288 290 290 286 284 283 284 284 284 284 283 282 281
336 326 315 307 306 310 312 313 314 314 312 310 307 306 304 303 300 299 297 293 289 288 288 286 285 286 283 278 277 278 278 279 281 280 279 279 278 280 283 285 284 279 274 269 264 264 268 272 275 274 273 271 268 269 271 272 274 276 276 278 276 275 276 274 276 278 282 286 285 288 293 290 291 293 287 287 292 292 289 286 284 284 286 286 286 285 284 283
347 337 326 317 313 315 316 316 315 314 313 310 308 306 304 303 302 300 297 293 289 289 289 289 286 286 285 280 277 278 280 281 281 279 278 278 276 277 281 283 282 278 274 271 268 269 270 272 275 273 273 275 273 271 272 271 274 276 274 278 278 275 276 273 273 277 281 288 290 292 295 292 289 286 284 288 292 291 291 290 287 286 287 288 287 286 286 284
344 338 330 323 319 318 317 316 315 314 313 310 307 305 304 304 302 300 298 294 291 290 291 291 289 287 284 280 277 278 280 280 280 279 277 277 275 274 276 279 279 276 274 273 274 275 273 273 275 274 274 277 276 273 274 273 275 277 274 278 283 283 281 273 271 278 282 289 294 294 295 297 294 284 284 292 292 289 291 291 289 288 288 288 289 289 287 285
339 335 331 325 322 321 319 318 317 315 315 311 308 305 303 303 302 301 299 295 292 291 291 291 289 287 282 278 277 278 280 280 278 277 277 277 276 273 272 276 277 275 274 274 276 277 276 274 274 275 276 277 276 274 276 275 276 279 279 280 282 285 286 283 279 282 287 291 292 293 293 295 300 296 291 293 291 289 290 290 290 290 289 289 289 289 289 288
340 336 333 329 326 325 323 321 319 317 316 313 310 306 302 300 301 301 298 295 294 292 293 291 287 286 283 277 276 278 280 278 277 279 278 277 277 274 274 275 275 274 275 277 277 277 276 274 274 276 278 278 277 277 277 276 277 279 281 283 282 281 285 288 285 282 289 292 289 291 294 294 301 304 298 293 291 289 290 291 292 291 291 292 290 289 290 290
344 341 338 335 332 329 326 323 320 318 316 314 312 308 303 300 300 300 297 297 295 293 293 292 288 287 285 281 278 279 278 277 279 280 278 278 276 273 275 275 273 273 275 277 277 277 275 276 278 278 278 278 277 278 280 279 279 278 278 283 284 281 284 288 288 287 292 294 288 289 294 297 301 302 299 294 292 290 290 292 293 292 294 295 294 291 291 291
347 345 341 337 335 332 329 326 322 320 318 316 315 312 308 303 301 298 296 297 296 294 293 292 292 289 286 284 283 281 279 279 281 280 278 278 274 272 274 273 272 273 275 276 277 277 276 276 279 279 277 278 277 279 282 282 281 280 279 282 284 285 288 289 291 292 291 292 291 290 292 294 296 297 296 294 292 290 290 292 292 292 296 298 296 294 292 292
350 346 342 338 335 333 330 328 325 323 321 320 319 317 312 307 303 298 298 300 297 294 293 292 292 288 285 288 288 287 285 282 281 282 278 275 274 273 271 271 273 274 274 274 273 272 274 274 277 281 280 279 279 278 279 281 281 281 282 283 286 289 290 290 290 290 289 291 292 292 292 293 295 296 295 295 294 290 288 290 291 294 299 301 299 297 296 295
348 346 342 338 335 333 330 328 326 325 323 322 321 320 315 308 303 297 298 304 300 294 294 292 289 286 287 290 291 290 288 283 279 278 277 278 276 273 269 269 271 272 274 276 270 267 274 277 278 283 281 277 278 278 280 285 287 286 286 286 287 288 289 290 291 291 291 292 291 291 292 294 297 297 296 296 295 292 289 291 296 300 302 302 300 300 300 299
344 343 341 339 336 333 331 328 325 325 325 323 322 320 316 312 305 300 304 308 303 296 294 292 289 287 286 288 292 293 287 280 276 275 278 282 279 275 270 266 269 270 271 273 271 272 280 282 279 282 285 284 284 286 288 292 292 290 289 287 287 288 289 291 291 292 293 293 292 292 293 295 298 298 298 296 293 294 296 299 303 305 304 302 302 302 302 301
342 340 339 338 335 332 330 328 326 326 325 322 322 319 317 316 310 307 312 311 306 300 296 294 291 288 287 288 292 294 287 277 274 274 281 285 279 276 271 264 269 271 268 270 274 280 281 281 282 287 290 290 290 292 294 293 291 289 288 287 288 289 290 294 293 290 292 294 294 296 296 296 298 298 297 295 293 298 303 304 305 304 303 303 304 303 301 300
339 337 336 335 333 331 329 327 326 327 326 322 323 321 318 316 312 311 313 309 307 302 296 295 292 288 288 288 289 291 286 280 275 273 285 288 277 273 276 272 271 273 272 272 275 280 279 280 287 291 290 289 291 294 293 291 289 288 287 288 290 291 292 295 294 290 292 295 295 297 297 297 299 298 297 297 299 303 304 304 304 304 305 305 306 305 304 304
337 335 333 331 330 329 327 325 324 326 328 325 323 321 316 315 314 314 312 307 306 303 297 296 294 293 292 290 292 292 287 283 281 280 289 290 280 276 280 277 276 278 277 274 275 279 279 282 289 291 290 290 291 292 291 289 289 287 287 289 291 294 295 293 293 293 294 294 295 298 299 299 299 297 297 301 303 303 303 305 306 305 306 307 308 309 309 309
335 333 331 330 328 327 326 323 321 325 327 326 324 319 315 315 315 316 312 306 306 305 302 299 297 299 298 296 299 298 293 288 284 286 291 290 284 280 279 280 281 281 279 279 281 281 282 287 290 288 288 290 291 291 290 290 291 289 288 290 292 296 296 293 296 298 297 297 298 300 300 299 299 297 296 298 298 299 301 303 306 306 307 308 310 311 310 308
333 331 329 329 327 326 324 321 321 322 322 321 321 317 315 315 316 318 314 307 306 306 304 302 300 302 305 303 303 303 300 294 288 289 292 290 285 282 283 282 280 282 285 287 286 283 285 289 290 288 288 291 292 292 291 290 293 294 293 296 296 297 297 296 300 301 300 300 299 301 303 300 303 302 295 294 295 298 300 302 306 308 309 310 311 309 307 305
329 328 328 327 326 325 323 319 320 319 316 316 317 315 314 315 317 318 316 309 306 307 306 306 304 305 308 308 308 308 302 296 294 292 290 288 286 284 285 282 279 285 289 288 286 286 288 289 289 290 291 293 293 292 293 294 295 295 294 298 299 298 298 297 300 300 299 299 297 298 299 298 302 302 291 290 296 298 302 305 306 308 309 309 308 306 305 304
327 327 327 327 326 326 322 318 318 317 313 312 313 312 312 315 317 318 317 309 304 309 309 308 306 306 310 311 310 309 304 300 298 294 291 290 288 286 286 286 285 286 289 289 288 287 289 290 290 292 293 293 293 294 297 298 297 294 293 298 299 297 296 296 298 296 295 298 297 294 293 294 300 300 291 290 295 299 302 304 304 307 308 308 306 305 305 305
326 326 327 328 326 326 323 318 316 316 313 311 311 309 310 313 315 316 316 310 306 310 311 310 308 307 310 311 309 306 305 306 301 296 295 292 290 288 286 287 288 289 289 287 288 290 292 293 292 294 294 294 295 297 299 299 297 295 296 297 298 296 296 297 296 295 296 298 298 295 292 294 298 299 295 294 296 299 301 301 303 306 307 306 305 305 304 305
325 325 327 328 326 324 322 319 317 315 313 312 310 308 309 311 311 312 310 306 309 312 310 309 309 309 310 310 307 304 304 305 301 299 298 294 292 291 289 290 292 292 289 285 288 293 296 296 296 297 296 295 298 298 298 299 297 298 298 297 296 295 296 297 295 295 297 295 296 295 290 295 299 297 294 296 298 297 297 300 302 304 306 304 304 305 305 305
323 323 325 327 325 323 322 319 318 315 313 312 310 309 309 308 309 309 302 302 312 313 309 309 309 309 313 313 309 306 305 304 302 301 298 296 294 292 293 294 294 293 292 290 291 295 297 298 299 299 298 298 299 297 297 299 300 301 300 298 299 298 297 296 295 297 298 296 298 296 290 295 301 300 297 297 298 297 297 300 301 303 305 304 304 305 305 305
321 321 324 326 325 323 321 317 317 315 312 310 310 310 310 307 306 304 299 303 312 312 307 309 311 310 314 316 311 310 310 308 307 305 302 300 297 295 298 299 298 298 297 294 293 295 298 299 300 300 300 300 299 298 298 300 301 301 301 302 303 301 299 297 297 299 299 299 300 300 298 297 297 299 301 301 301 301 300 301 302 303 304 304 305 305 305 306
320 320 322 324 323 323 321 317 316 314 310 310 311 309 310 309 305 301 301 306 310 311 310 310 310 312 314 313 309 311 313 310 310 309 306 306 304 304 304 303 304 302 298 298 299 298 298 299 300 300 301 302 301 301 303 301 300 299 301 304 305 303 300 298 298 298 298 298 298 301 304 298 295 298 299 299 301 302 302 302 302 302 303 304 305 305 306 307
319 319 319 321 322 322 320 317 315 313 311 311 310 308 309 308 303 300 304 308 307 306 308 307 307 310 312 311 311 312 311 309 309 309 306 306 305 307 306 306 306 301 296 302 305 302 301 301 301 300 302 303 303 304 305 303 302 302 303 305 304 303 302 299 299 299 299 299 298 301 303 298 298 301 300 300 302 303 304 303 302 303 304 304 305 305 307 308
318 317 317 319 321 320 319 317 314 312 312 311 310 309 308 306 304 303 307 310 309 306 306 308 310 310 309 313 314 314 312 310 309 310 308 306 306 306 307 309 310 304 300 304 305 302 300 300 302 304 303 303 305 306 304 302 303 302 302 303 303 301 299 298 301 302 300 300 300 302 302 300 301 302 303 305 305 305 305 302 302 304 305 305 305 307 308 308
316 316 316 317 317 318 319 317 314 313 312 311 309 308 306 305 307 309 309 309 311 311 309 310 313 311 311 315 314 314 316 312 310 312 309 308 311 309 308 310 312 310 307 306 305 303 299 298 302 305 304 304 306 305 304 305 304 302 303 305 301 298 297 297 300 299 298 299 301 299 299 301 303 303 303 304 303 304 306 305 305 307 308 308 308 309 310 310
316 316 316 315 315 317 318 316 315 314 312 311 310 308 305 305 308 311 310 309 311 313 312 312 315 313 313 314 312 313 315 311 312 315 312 311 314 312 309 309 311 312 311 307 307 307 302 299 301 304 305 307 307 306 306 307 305 303 304 303 298 296 298 298 299 300 299 300 300 300 300 303 304 302 300 299 300 304 306 307 309 310 312 311 310 311 311 310
317 316 314 313 315 317 316 315 315 312 311 311 310 308 307 306 308 311 313 312 311 312 313 314 315 315 314 314 313 315 315 312 312 313 312 310 311 310 309 309 310 311 312 309 307 307 304 301 303 306 307 307 307 306 307 307 305 303 302 301 301 300 300 300 301 304 303 299 300 302 302 303 303 302 298 297 303 306 306 308 309 311 313 312 312 312 311 310
318 315 312 312 316 317 316 315 315 312 311 310 309 311 313 313 314 315 315 313 310 311 313 313 313 315 315 314 314 316 317 315 315 314 313 310 308 308 309 309 310 310 310 309 308 307 306 304 305 308 307 306 307 308 307 305 304 304 302 302 305 304 302 302 303 304 304 301 301 303 303 303 304 303 300 299 303 305 306 308 309 310 312 312 312 312 312 312
318 315 312 315 319 319 318 317 316 313 312 312 315 318 318 318 319 318 316 313 312 313 314 314 313 313 313 313 313 315 317 315 314 314 313 311 309 310 310 309 309 309 310 310 308 308 307 304 303 306 307 308 308 308 307 305 305 306 306 307 307 303 300 301 302 303 303 302 302 304 307 308 308 306 303 302 304 306 308 308 308 310 312 313 313 313 312 312
319 316 313 319 323 321 320 319 318 316 315 319 322 320 317 318 319 318 318 316 314 315 315 316 315 313 313 314 313 314 314 312 311 311 310 310 310 311 313 312 310 310 310 310 308 308 308 302 301 306 308 309 308 306 306 306 306 306 306 306 307 305 303 304 302 301 300 301 303 305 305 306 309 308 305 306 307 308 309 309 309 312 313 314 313 313 312 312
319 317 315 322 325 323 321 322 324 323 321 324 324 321 319 318 318 318 319 318 316 316 317 315 313 312 313 314 313 313 313 310 310 310 308 311 312 310 311 311 310 310 310 310 309 309 308 304 302 305 306 308 308 305 306 307 307 308 307 305 307 307 307 306 304 304 303 301 303 303 301 303 306 304 304 307 309 310 312 312 312 313 313 313 313 313 313 313
319 318 319 325 328 325 322 323 325 324 324 324 323 323 322 318 317 318 318 317 316 316 316 313 312 311 312 314 314 314 313 311 310 310 309 311 313 309 308 309 310 309 309 310 310 310 308 305 304 304 305 309 309 305 305 307 307 310 310 310 309 308 309 306 303 306 306 303 303 302 299 302 304 302 306 311 311 312 314 315 313 313 313 313 313 313 313 313
320 320 321 328 331 327 325 324 324 326 328 324 321 322 321 318 318 317 316 316 316 315 314 313 314 313 313 315 313 313 315 312 309 310 310 311 311 308 309 311 311 309 309 309 310 312 310 306 305 305 306 310 311 306 305 307 309 312 311 311 310 308 309 306 302 304 304 301 301 300 299 302 302 304 310 313 313 314 315 315 314 313 313 313 314 314 314 314
323 321 322 331 335 332 328 326 325 328 327 321 318 320 320 319 319 318 318 319 318 316 315 314 316 315 314 315 311 311 313 311 310 311 310 309 310 308 309 311 311 311 311 309 310 312 310 308 310 310 310 312 313 310 310 309 311 313 312 312 311 310 311 308 305 305 303 301 301 300 299 301 301 304 309 311 312 313 313 314 314 313 313 314 314 314 315 315
325 322 323 331 339 339 331 325 325 325 324 322 320 320 319 319 321 320 320 321 319 318 316 314 315 314 312 313 309 308 308 307 307 310 309 309 309 308 309 310 310 311 312 310 309 310 310 309 310 311 310 312 312 311 311 312 312 312 311 312 311 312 312 310 308 306 303 305 306 301 300 302 304 308 310 311 312 312 313 314 314 313 313 314 314 314 315 314
327 325 324 326 335 341 335 329 327 324 323 323 321 320 320 320 321 320 319 320 319 317 315 312 312 311 310 310 308 307 307 306 307 309 309 310 309 308 309 311 311 311 312 311 311 311 311 310 310 307 305 306 308 308 311 313 311 310 312 313 311 312 313 311 309 306 304 308 307 303 306 309 310 312 312 313 313 312 312 313 313 313 314 314 314 314 314 313
326 323 324 323 327 332 331 332 332 326 323 323 322 323 322 321 321 320 319 319 317 315 313 311 311 311 310 311 310 310 310 308 308 310 310 309 310 311 311 312 312 312 313 313 313 313 311 310 312 311 308 308 309 309 311 312 310 311 314 315 313 313 314 313 311 309 310 310 306 308 313 312 311 314 313 313 313 312 312 314 314 314 315 314 314 313 313 313
326 321 323 323 323 325 325 328 329 326 324 324 323 323 322 322 322 321 319 317 315 314 313 313 312 310 311 313 313 311 313 313 311 312 312 312 312 312 313 314 314 314 314 315 315 316 313 311 314 315 312 310 309 308 308 310 312 315 316 316 317 316 315 315 312 312 314 311 307 311 314 311 312 314 313 313 314 313 313 314 314 315 315 315 314 313 314 315
325 323 323 322 323 324 322 322 324 324 322 323 323 323 322 323 323 319 317 316 315 314 314 315 316 315 316 317 314 313 316 317 313 313 315 315 314 314 315 317 316 313 314 315 316 317 315 313 314 314 311 311 311 310 310 311 314 318 318 318 320 319 319 319 316 315 315 311 309 312 312 311 313 314 313 314 314 314 314 314 315 316 316 315 314 315 315 315
322 323 323 322 323 323 322 322 321 321 319 320 323 322 321 323 323 319 317 318 317 316 316 317 319 319 317 316 316 317 321 321 317 316 319 320 319 319 319 319 318 316 316 317 318 318 317 316 315 315 314 316 316 314 314 314 316 319 320 321 321 320 321 321 318 317 316 312 312 313 312 311 313 314 313 314 314 314 315 316 316 317 316 316 316 316 316 315
322 322 321 321 321 320 321 320 319 320 322 323 324 322 321 324 322 318 319 321 320 319 320 320 322 322 318 317 320 325 329 329 324 322 322 322 321 321 320 320 321 320 319 320 319 318 318 317 317 317 317 317 316 315 317 319 320 321 323 323 322 321 322 320 318 318 317 315 315 316 314 312 313 314 314 314 316 316 317 317 318 317 316 316 317 317 316 316
322 321 321 320 319 320 322 320 319 322 322 323 324 324 322 322 322 320 321 323 324 326 325 325 326 325 324 326 329 331 330 328 324 323 323 320 319 320 321 322 323 322 321 321 320 319 320 318 318 319 318 316 318 320 320 318 318 320 323 322 321 322 322 320 318 318 318 318 318 316 315 313 314 315 315 316 317 317 318 319 319 317 316 317 319 319 319 319